TimeEDT,TemperatureF,Dew PointF,Humidity,Sea Level PressureIn,VisibilityMPH,Wind Direction,Wind SpeedMPH,Gust SpeedMPH,PrecipitationIn,Events,Conditions,WindDirDegrees,DateUTC
12:53 AM,50.0,44.1,80,30.09,10.0,SE,3.5,-,N/A,,Clear,130,2013-05-07 04:53:00
1:53 AM,50.0,45.0,83,30.08,10.0,SSE,3.5,-,N/A,,Clear,150,2013-05-07 05:53:00
2:53 AM,50.0,45.0,83,30.08,10.0,Calm,Calm,-,N/A,,Clear,0,2013-05-07 06:53:00
3:30 AM,46.9,43.0,86,30.10,1.8,Calm,Calm,-,N/A,,Clear,0,2013-05-07 07:30:00
3:42 AM,46.9,42.1,83,30.10,4.0,Calm,Calm,-,N/A,,Haze,0,2013-05-07 07:42:00
4:01 AM,46.0,42.1,86,30.10,1.8,Calm,Calm,-,N/A,,Clear,0,2013-05-07 08:01:00
4:05 AM,46.0,42.1,86,30.10,3.0,Calm,Calm,-,N/A,,Clear,0,2013-05-07 08:05:00
4:12 AM,46.0,41.0,83,30.10,1.8,Calm,Calm,-,N/A,,Haze,0,2013-05-07 08:12:00
4:22 AM,46.0,42.1,86,30.10,4.0,Calm,Calm,-,N/A,,Clear,0,2013-05-07 08:22:00
4:53 AM,44.1,39.9,85,30.08,9.0,SE,3.5,-,N/A,,Clear,140,2013-05-07 08:53:00
5:01 AM,44.1,39.9,85,30.10,1.8,SE,3.5,-,N/A,,Clear,140,2013-05-07 09:01:00
5:12 AM,46.0,41.0,83,30.09,3.0,Calm,Calm,-,N/A,,Haze,0,2013-05-07 09:12:00
5:44 AM,46.0,42.1,86,30.09,1.8,Calm,Calm,-,N/A,,Clear,0,2013-05-07 09:44:00
5:57 AM,48.0,43.0,83,30.09,3.0,Calm,Calm,-,N/A,,Haze,0,2013-05-07 09:57:00
6:53 AM,51.1,46.9,86,30.09,9.0,Calm,Calm,-,N/A,,Clear,0,2013-05-07 10:53:00
7:53 AM,55.9,48.9,77,30.09,10.0,Variable,4.6,-,N/A,,Clear,0,2013-05-07 11:53:00
8:53 AM,61.0,48.0,62,30.10,10.0,SE,11.5,-,N/A,,Clear,140,2013-05-07 12:53:00
9:53 AM,64.0,48.0,56,30.09,10.0,ESE,12.7,-,N/A,,Clear,110,2013-05-07 13:53:00
10:53 AM,68.0,44.1,42,30.09,10.0,SE,9.2,-,N/A,,Clear,130,2013-05-07 14:53:00
11:53 AM,70.0,39.9,33,30.08,10.0,ESE,13.8,20.7,N/A,,Clear,110,2013-05-07 15:53:00
12:39 PM,72.0,43.0,35,30.09,10.0,ESE,13.8,20.7,N/A,,Clear,110,2013-05-07 16:39:00
12:53 PM,71.1,43.0,36,30.07,10.0,SE,9.2,18.4,N/A,,Partly Cloudy,130,2013-05-07 16:53:00
1:53 PM,72.0,42.1,34,30.05,10.0,ESE,8.1,-,N/A,,Mostly Cloudy,110,2013-05-07 17:53:00
2:53 PM,72.0,37.9,29,30.03,10.0,East,11.5,-,N/A,,Overcast,100,2013-05-07 18:53:00
3:53 PM,75.0,37.0,25,30.01,10.0,SE,11.5,18.4,N/A,,Partly Cloudy,140,2013-05-07 19:53:00
4:53 PM,73.9,36.0,25,30.00,10.0,East,10.4,17.3,N/A,,Scattered Clouds,90,2013-05-07 20:53:00
5:53 PM,72.0,41.0,33,30.00,10.0,East,6.9,-,N/A,,Mostly Cloudy,100,2013-05-07 21:53:00
6:53 PM,72.0,41.0,33,30.00,10.0,SE,11.5,-,N/A,,Mostly Cloudy,130,2013-05-07 22:53:00
7:53 PM,69.1,43.0,39,30.01,10.0,East,6.9,-,0.00,,Overcast,80,2013-05-07 23:53:00
8:53 PM,66.9,45.0,45,30.02,10.0,Calm,Calm,-,0.00,,Overcast,0,2013-05-08 00:53:00
9:53 PM,62.1,46.0,56,30.03,10.0,Calm,Calm,-,N/A,,Scattered Clouds,0,2013-05-08 01:53:00
10:53 PM,63.0,46.0,54,30.03,10.0,SSE,5.8,-,N/A,,Clear,160,2013-05-08 02:53:00
11:53 PM,57.9,46.0,65,30.04,10.0,ESE,3.5,-,N/A,,Clear,110,2013-05-08 03:53:00